Wind_Speed
6 5 5 5 5 5 5 5 5 6 6 5 5 5 5 5 6 5 4 4 5 5 5 5 6 7 8 9 10 12 13 14 13 13 12 12 11 11 10 10 9 8 7
5 5 4 4 3 3 3 3 3 3 4 4 3 3 3 4 4 4 3 3 3 4 4 5 6 6 7 9 10 10 11 13 14 14 14 14 13 13 12 11 11 10 9
4 3 3 3 3 2 2 2 2 2 2 2 2 1 1 2 2 3 2 2 2 3 4 5 5 5 6 7 9 10 10 11 14 16 16 16 15 15 14 14 13 12 12
4 2 2 2 1 1 1 1 1 1 1 1 0 1 1 1 1 2 1 1 1 1 3 4 4 4 5 6 8 9 10 11 12 14 15 16 17 17 16 16 16 15 14
4 3 2 1 1 1 1 1 1 2 1 1 1 1 1 2 2 1 1 1 1 2 2 3 3 4 5 6 7 9 10 10 11 13 15 16 16 17 18 18 18 17 16
5 4 3 2 2 2 3 3 3 3 3 3 2 2 2 2 2 2 2 1 1 1 0 1 2 3 4 5 6 8 9 10 10 12 14 16 17 17 18 19 20 20 19
6 5 4 4 4 4 5 5 5 5 4 4 4 4 3 3 3 2 1 1 1 1 1 2 2 3 4 5 5 6 8 9 10 10 12 14 17 18 19 19 20 22 22
7 6 6 5 5 5 5 5 5 5 4 4 3 3 3 3 3 2 2 2 2 2 2 3 3 4 5 5 6 7 8 9 10 11 11 12 15 17 19 20 20 21 22
8 8 7 7 6 6 5 5 4 4 4 3 3 3 2 2 2 2 2 2 3 3 3 3 4 5 5 5 6 7 8 9 10 11 12 12 13 15 17 19 20 21 22
9 9 8 8 7 6 5 4 3 3 3 2 2 1 1 0 1 2 2 3 4 4 4 4 5 5 6 6 7 7 8 9 10 11 12 13 13 14 16 18 19 21 22
11 11 10 9 8 7 6 5 4 3 3 3 2 2 2 3 4 4 5 5 5 5 5 6 6 7 8 8 9 9 9 10 11 12 13 14 15 16 16 17 19 20 21
12 12 12 11 10 9 8 7 6 6 6 5 5 5 6 6 7 8 8 8 8 7 7 7 8 9 10 10 11 11 11 12 12 13 14 14 15 16 17 18 19 21 21
14 13 13 12 12 12 11 11 10 9 9 9 9 9 9 10 10 11 11 11 11 11 11 11 11 11 12 12 12 13 13 14 14 15 16 16 17 17 18 19 20 21 22
15 14 14 14 14 14 14 13 13 13 13 13 13 13 14 14 14 14 14 14 14 14 14 15 15 15 15 15 15 15 15 15 16 17 17 18 19 20 20 21 22 22 23
16 16 16 16 16 16 16 16 16 16 17 17 17 18 18 17 17 17 17 17 17 17 17 17 17 18 18 18 18 18 18 18 18 19 19 20 21 21 22 23 24 24 25
18 18 18 18 18 18 19 19 20 20 20 21 21 21 21 21 21 21 21 21 21 20 20 20 20 20 21 21 22 22 22 21 21 21 21 22 22 23 24 24 25 26 26
20 20 20 21 21 21 22 22 23 23 23 24 24 25 24 24 24 24 24 24 24 24 24 23 23 23 23 24 24 24 25 25 25 25 24 24 24 25 25 26 27 27 28
22 22 23 23 24 24 25 25 26 26 26 27 27 28 28 27 27 27 27 27 27 27 27 27 26 26 26 26 26 27 27 27 28 28 28 28 28 28 28 29 29 29 30
23 24 25 26 27 27 28 28 29 29 29 29 29 30 30 30 30 30 30 30 30 30 29 29 29 29 29 30 30 30 30 30 30 31 31 31 32 32 32 32 32 32 32
24 26 26 28 29 30 31 31 31 32 32 32 32 31 31 32 32 33 33 33 33 33 33 32 33 33 33 34 34 34 34 35 35 35 34 34 34 35 35 35 35 35 35
26 27 28 29 30 32 33 33 33 33 34 34 34 34 34 35 35 35 36 36 36 36 36 37 37 37 37 38 39 40 39 39 38 39 39 39 39 39 39 39 39 39 38
29 29 30 31 32 34 34 35 35 35 36 37 37 37 38 38 38 38 38 38 39 39 40 41 41 41 41 42 43 44 43 43 42 42 44 43 43 42 43 43 42 42 42
30 31 31 33 33 34 35 35 36 37 38 38 39 40 40 40 41 41 41 42 42 43 44 45 45 45 46 46 47 47 47 47 46 46 48 47 47 46 46 46 46 46 45
32 34 35 36 36 36 37 36 37 38 39 40 41 42 42 43 43 44 44 45 46 47 48 49 49 49 50 50 51 52 52 52 51 51 52 51 50 50 50 49 49 48 48
33 34 35 35 35 37 38 38 39 40 40 41 42 42 43 44 45 46 47 49 49 50 52 53 54 54 55 55 56 57 57 57 56 55 55 55 54 54 53 52 51 51 50
33 35 35 35 35 37 38 39 39 40 41 42 43 44 46 47 49 50 51 52 54 55 56 58 58 59 60 60 61 63 63 63 63 61 60 61 59 60 58 56 55 54 53
Wind_Direction
281 286 288 287 293 297 292 288 287 287 283 283 276 265 248 231 239 245 234 215 213 216 216 220 223 225 225 224 227 229 230 229 230 230 230 229 228 227 226 226 226 227 227
270 268 273 283 291 292 289 293 294 291 287 286 290 284 248 226 232 235 209 194 206 215 218 225 229 231 232 230 232 232 232 231 232 233 233 233 231 231 231 232 232 233 233
260 260 256 271 280 276 274 273 273 276 291 291 289 295 259 219 220 210 203 212 220 215 216 222 226 230 233 231 234 237 238 237 237 236 235 235 234 234 235 235 236 237 237
253 247 240 252 238 230 234 231 224 222 250 307 347 32 85 135 149 171 182 204 215 210 211 215 223 230 237 238 237 240 243 244 243 240 237 237 237 237 238 238 239 239 240
235 222 211 193 178 180 182 158 150 148 138 114 86 63 74 104 114 135 170 179 174 189 208 225 228 234 245 246 243 242 246 247 247 242 239 239 240 240 241 240 240 241 241
215 205 186 163 150 146 136 127 122 124 120 107 90 80 75 82 96 94 97 95 101 130 233 240 246 249 255 255 252 246 245 245 247 245 242 242 242 241 243 243 242 242 243
204 193 180 162 147 138 131 122 118 117 116 109 100 93 87 83 85 81 70 52 38 9 347 313 285 273 266 262 259 254 252 251 249 250 247 245 244 244 244 245 244 243 243
201 191 177 167 157 147 139 130 125 122 121 116 108 101 95 88 82 74 51 23 1 343 323 302 289 281 278 269 263 261 260 257 254 253 254 253 250 248 246 246 246 245 244
201 194 184 178 171 163 153 143 137 134 132 128 120 112 103 90 67 51 22 360 347 337 318 302 294 287 286 284 277 269 265 263 260 260 259 258 256 252 249 249 248 248 247
201 195 190 189 187 186 182 174 173 169 160 158 154 141 113 24 345 335 331 329 325 319 312 301 292 289 289 289 285 279 272 268 266 264 263 262 260 257 255 254 252 250 249
202 200 200 202 202 204 209 213 219 221 216 224 243 261 273 286 297 302 304 307 308 306 302 296 291 289 288 286 285 283 280 276 272 269 268 266 264 261 260 259 258 255 253
209 209 212 214 219 224 230 236 242 246 249 255 263 270 276 281 286 291 294 297 298 297 296 295 292 288 286 285 284 282 281 279 276 273 271 269 268 266 263 262 261 260 257
218 217 218 224 230 235 240 244 249 254 257 262 266 271 276 281 284 285 287 288 291 292 291 291 290 289 286 284 283 281 280 279 277 275 274 272 270 269 267 265 263 262 259
224 224 227 232 237 241 245 250 254 258 261 265 269 273 277 279 282 283 284 284 285 286 287 287 286 285 284 283 281 280 279 278 277 276 274 273 271 270 269 268 265 263 262
233 235 237 240 245 249 252 256 259 262 264 267 271 274 277 279 280 282 283 284 284 283 282 282 282 283 283 282 281 280 279 277 276 275 274 272 272 271 270 268 267 265 264
241 243 246 249 251 254 257 260 262 264 265 268 270 273 275 277 279 280 282 283 282 282 281 279 278 279 279 279 279 278 277 276 275 274 273 272 271 271 270 269 268 266 265
247 249 251 253 255 258 259 261 263 265 266 268 270 272 274 275 277 278 279 280 280 280 280 278 277 276 275 274 274 275 276 276 276 275 274 272 271 270 269 269 268 267 266
252 253 255 256 257 258 260 261 263 264 266 268 270 271 273 274 275 276 277 277 278 278 279 279 278 277 276 275 274 273 273 272 272 273 273 273 272 270 269 268 268 268 267
255 255 256 257 258 260 261 262 264 264 265 267 269 271 272 272 273 273 274 275 276 277 277 278 278 278 277 276 275 274 272 271 271 271 271 272 272 271 270 269 268 267 267
259 259 261 261 260 261 262 263 264 266 266 267 268 270 271 272 273 273 273 274 274 275 276 277 277 278 278 277 276 275 273 273 271 271 270 270 271 271 271 270 268 267 266
266 267 266 266 267 266 266 265 265 267 268 268 269 270 270 271 272 273 274 274 275 275 276 276 276 275 276 276 275 274 273 272 272 272 271 270 270 270 270 269 269 268 267
272 274 272 273 272 270 271 270 269 269 269 270 270 270 270 271 271 272 273 274 274 275 275 275 275 275 274 273 273 273 272 271 271 271 271 270 270 269 269 269 268 267 266
279 278 276 277 275 273 274 274 273 272 273 272 271 271 270 270 270 271 272 273 273 274 274 274 274 274 273 273 272 272 272 271 270 270 270 269 269 268 267 267 267 266 266
281 280 280 280 276 274 274 275 276 276 277 276 275 273 272 272 271 271 272 272 272 273 273 273 273 273 273 273 273 272 271 271 270 270 269 268 267 266 266 265 265 264 264
285 283 283 281 278 277 277 277 277 277 277 277 276 275 276 276 275 275 274 274 273 273 273 273 273 273 273 273 273 272 271 270 269 269 269 268 266 265 264 264 263 262 262
287 286 285 282 280 279 277 277 278 277 278 279 279 278 278 278 277 276 276 276 275 274 274 274 275 274 274 273 273 272 271 271 270 269 268 267 266 264 263 262 261 260 260
Height
5888 5887 5887 5886 5886 5885 5884 5884 5883 5882 5881 5880 5880 5880 5881 5882 5883 5883 5884 5884 5885 5886 5887 5888 5888 5889 5890 5891 5892 5894 5895 5896 5898 5899 5901 5902 5903 5904 5905 5906 5907 5908 5908
5886 5886 5886 5885 5885 5884 5883 5883 5882 5881 5880 5880 5879 5879 5879 5881 5882 5882 5883 5884 5884 5885 5885 5886 5887 5887 5888 5889 5890 5891 5892 5894 5895 5897 5898 5899 5901 5902 5903 5905 5906 5907 5907
5885 5885 5885 5884 5884 5883 5882 5882 5881 5881 5880 5880 5879 5879 5879 5880 5881 5882 5882 5883 5883 5883 5884 5884 5885 5886 5887 5887 5888 5889 5890 5891 5892 5893 5895 5897 5898 5899 5901 5902 5904 5905 5906
5884 5884 5884 5883 5883 5882 5882 5881 5881 5881 5880 5880 5879 5879 5879 5880 5880 5881 5881 5882 5882 5882 5883 5883 5884 5885 5885 5885 5886 5887 5887 5888 5889 5890 5892 5893 5895 5896 5898 5900 5901 5902 5904
5882 5883 5883 5882 5882 5882 5881 5881 5881 5881 5880 5880 5880 5879 5879 5880 5880 5881 5881 5881 5882 5882 5882 5883 5883 5883 5884 5884 5884 5884 5885 5886 5886 5887 5889 5890 5892 5893 5895 5896 5898 5899 5901
5881 5882 5882 5882 5881 5881 5881 5881 5881 5881 5881 5880 5880 5880 5880 5880 5880 5881 5881 5881 5881 5881 5882 5882 5882 5882 5882 5882 5882 5882 5883 5883 5884 5885 5886 5887 5888 5889 5891 5892 5894 5896 5897
5880 5881 5881 5881 5881 5881 5881 5881 5881 5881 5881 5881 5881 5881 5881 5881 5881 5881 5881 5881 5881 5881 5881 5881 5881 5881 5881 5881 5881 5881 5881 5881 5882 5882 5883 5884 5885 5886 5887 5888 5890 5891 5893
5879 5880 5880 5881 5881 5881 5881 5881 5882 5881 5881 5881 5881 5881 5881 5882 5881 5881 5881 5881 5881 5880 5880 5880 5880 5880 5879 5879 5879 5879 5879 5879 5879 5880 5880 5881 5881 5882 5883 5884 5885 5887 5888
5877 5878 5879 5880 5881 5881 5881 5881 5882 5882 5882 5882 5882 5882 5881 5881 5881 5881 5881 5881 5880 5880 5879 5879 5879 5878 5878 5877 5877 5877 5877 5877 5877 5877 5877 5877 5878 5878 5879 5880 5881 5882 5883
5876 5877 5878 5879 5880 5880 5881 5881 5881 5881 5881 5882 5882 5881 5881 5881 5881 5880 5880 5880 5879 5879 5878 5877 5877 5876 5876 5875 5875 5875 5875 5874 5874 5874 5874 5874 5875 5875 5875 5876 5877 5877 5878
5875 5876 5877 5878 5879 5879 5880 5880 5880 5880 5881 5881 5881 5880 5880 5880 5880 5879 5879 5878 5878 5877 5876 5876 5875 5874 5873 5873 5873 5872 5872 5872 5871 5871 5871 5871 5871 5871 5871 5872 5872 5872 5873
5873 5874 5875 5876 5877 5877 5878 5878 5878 5879 5879 5879 5879 5879 5879 5878 5878 5877 5877 5876 5875 5875 5874 5873 5873 5872 5871 5870 5870 5869 5869 5869 5868 5868 5868 5867 5867 5867 5867 5867 5868 5868 5868
5870 5871 5872 5874 5874 5875 5876 5876 5876 5876 5876 5876 5876 5876 5876 5875 5875 5875 5874 5873 5872 5871 5870 5870 5869 5868 5868 5867 5866 5866 5865 5865 5864 5864 5864 5863 5863 5863 5863 5863 5863 5863 5863
5868 5869 5870 5871 5871 5872 5872 5873 5873 5873 5873 5873 5873 5872 5872 5872 5871 5870 5870 5869 5868 5867 5866 5865 5865 5864 5863 5863 5862 5861 5861 5860 5860 5859 5859 5858 5858 5858 5858 5857 5857 5857 5857
5864 5865 5866 5867 5868 5868 5869 5869 5869 5869 5869 5868 5868 5868 5867 5866 5866 5865 5864 5864 5863 5862 5862 5861 5860 5859 5858 5857 5856 5856 5856 5855 5855 5854 5853 5853 5852 5852 5852 5852 5851 5851 5851
5861 5862 5862 5863 5863 5864 5864 5864 5864 5864 5863 5863 5862 5862 5861 5860 5859 5859 5858 5857 5857 5856 5855 5855 5854 5853 5852 5851 5850 5850 5849 5849 5848 5848 5847 5847 5846 5846 5845 5845 5845 5845 5844
5857 5857 5858 5858 5858 5858 5858 5858 5858 5857 5857 5856 5856 5855 5854 5854 5852 5852 5851 5850 5849 5848 5848 5848 5847 5846 5845 5844 5844 5843 5842 5841 5841 5840 5840 5839 5839 5838 5838 5838 5837 5837 5837
5852 5852 5852 5852 5852 5852 5852 5852 5851 5850 5850 5849 5848 5848 5847 5846 5845 5844 5843 5842 5841 5840 5840 5839 5838 5838 5837 5836 5836 5835 5834 5833 5832 5832 5831 5831 5831 5830 5830 5830 5829 5829 5829
5846 5846 5846 5846 5845 5845 5844 5844 5843 5843 5842 5841 5840 5839 5838 5838 5837 5835 5834 5833 5832 5831 5830 5830 5829 5828 5827 5826 5826 5825 5825 5824 5824 5823 5822 5822 5821 5821 5821 5820 5820 5820 5820
5839 5838 5838 5837 5837 5837 5836 5835 5835 5834 5833 5832 5831 5830 5829 5828 5827 5826 5825 5824 5823 5822 5821 5820 5819 5818 5817 5816 5815 5814 5814 5813 5813 5813 5812 5812 5811 5811 5810 5810 5810 5809 5809
5831 5831 5830 5830 5828 5828 5827 5826 5825 5824 5824 5823 5822 5821 5819 5818 5817 5816 5815 5814 5812 5812 5811 5810 5809 5807 5806 5804 5803 5802 5802 5802 5801 5801 5800 5800 5799 5799 5799 5798 5798 5798 5797
5824 5823 5822 5821 5819 5819 5818 5817 5815 5815 5814 5813 5812 5810 5809 5807 5806 5805 5804 5802 5801 5800 5799 5797 5796 5795 5794 5792 5790 5789 5789 5789 5789 5789 5787 5788 5787 5787 5786 5786 5785 5785 5785
5816 5815 5814 5812 5810 5809 5808 5807 5806 5805 5803 5802 5800 5799 5797 5795 5794 5793 5791 5790 5789 5787 5785 5784 5783 5782 5780 5779 5777 5776 5774 5774 5775 5774 5773 5774 5773 5773 5773 5772 5771 5771 5772
5807 5806 5804 5802 5800 5799 5798 5797 5795 5794 5792 5790 5788 5786 5784 5782 5781 5780 5778 5777 5775 5773 5771 5769 5768 5767 5765 5764 5762 5760 5759 5758 5759 5759 5757 5758 5758 5758 5758 5757 5757 5757 5757
5797 5795 5793 5791 5790 5788 5787 5785 5784 5782 5780 5778 5776 5774 5772 5770 5768 5765 5764 5762 5761 5758 5755 5753 5752 5750 5748 5746 5744 5742 5741 5740 5741 5742 5740 5739 5741 5740 5741 5741 5742 5742 5742
5787 5785 5783 5781 5779 5777 5775 5773 5772 5770 5768 5766 5763 5760 5758 5755 5753 5750 5748 5746 5744 5741 5739 5736 5734 5732 5730 5727 5724 5722 5721 5719 5720 5722 5722 5720 5721 5720 5722 5725 5724 5725 5726